{"data":{"norad_id":56698,"intl_designator":"2023-067L","name":"STARLINK-30068","alt_names":[],"object_type":"PAYLOAD","status":"ACTIVE","operator":null,"country":"US","launch_date":"2023-05-19","launch_site_code":"AFETR","launch_vehicle":null,"mission":null,"orbit_class":"UNKNOWN","rcs_meters":null,"size_class":null,"mass_kg":null,"dimensions":null,"purposes":["comms"],"wikipedia_slug":null,"has_3d_model":false,"image_url":null,"decayed_at":null,"tle_current":{"epoch":"2026-05-25T03:48:44.235648Z","epoch_age_seconds":55274,"freshness":"FRESH","line1":"1 56698U 23067L   26145.15884532  .00000098  00000+0  13101-4 0  9992","line2":"2 56698  43.0038 188.0320 0001732 275.7207  84.3447 15.27578147167268","mean_motion":15.27578147,"eccentricity":0.0001732,"inclination_deg":43.0038,"raan_deg":188.032,"arg_perigee_deg":275.7207,"mean_anomaly_deg":84.3447,"bstar":1.3101e-5,"rev_number":16726,"period_min":94.266863062162,"perigee_km":481.86628620103,"apogee_km":484.24300298672,"semimajor_km":6861.1916445939,"source":"CELESTRAK","updated_at":"2026-05-25T13:38:18.120716Z"}}}